Wind_Speed
22 22 23 23 22 25 27 27 26 24 22 21 19 18 16 16 16 16 17 18 18 18 17 17 17 16 16 16 17 18 19 20 20 21 22 22 22 22
20 20 21 22 23 23 26 29 29 29 27 25 23 21 20 19 19 18 18 19 19 19 19 18 18 18 18 18 18 18 19 19 19 20 20 21 21 22
19 20 21 22 23 23 25 28 31 32 31 29 27 25 24 22 21 20 20 21 21 21 20 20 20 20 19 19 19 19 19 19 19 19 19 20 20 21
18 19 20 21 23 23 24 27 31 33 34 32 31 30 28 26 24 23 22 22 22 22 22 22 22 21 21 20 20 20 20 20 20 20 20 20 20 21
18 18 19 20 21 23 24 26 30 32 34 34 34 34 32 30 28 26 25 24 24 24 24 24 23 23 23 22 21 21 22 21 21 22 22 22 22 22
20 20 19 19 19 21 23 24 27 30 33 34 36 36 35 34 32 31 29 28 26 25 26 26 26 25 24 24 24 24 24 23 23 24 24 24 24 24
22 21 21 20 20 20 21 23 24 27 29 34 36 37 37 36 35 34 33 32 30 29 30 29 29 28 27 27 27 27 26 26 26 26 26 26 26 27
23 22 22 21 20 20 20 21 23 25 27 31 34 36 37 37 36 35 34 33 32 33 32 31 31 31 31 30 30 30 30 30 30 30 29 29 29 28
23 23 22 21 20 19 19 20 21 22 24 25 27 30 34 36 37 36 35 33 34 35 34 33 33 34 34 33 32 32 32 32 32 32 31 30 30 30
22 23 23 23 22 21 21 20 20 21 22 23 25 27 30 32 34 35 35 34 34 34 34 34 36 36 35 34 33 33 33 34 34 33 33 32 31 31
23 23 23 24 23 23 22 22 22 22 21 22 23 25 26 28 31 33 34 34 34 34 35 34 35 36 35 34 34 33 34 34 34 34 34 33 33 32
24 24 24 24 24 24 23 23 23 23 23 23 23 24 25 27 28 30 31 32 33 34 35 34 35 36 35 35 35 35 35 35 35 35 35 34 34 34
23 24 24 25 25 24 24 24 24 24 24 24 25 25 25 25 26 28 30 31 32 34 35 36 36 37 36 36 37 37 37 37 37 37 37 37 36 36
24 24 25 25 25 25 24 24 24 24 24 25 26 26 26 26 26 27 28 30 32 33 35 36 37 38 39 39 39 40 40 40 39 39 39 39 39 38
24 25 24 24 24 24 24 24 24 25 25 26 26 26 27 27 27 27 28 29 30 32 34 36 37 38 39 40 41 42 42 42 42 42 42 42 41 41
26 26 25 24 24 24 24 24 25 25 25 25 26 26 26 26 27 28 29 29 30 31 32 34 36 38 39 40 41 41 42 44 44 45 45 45 44 43
23 24 24 24 23 23 23 23 23 23 23 24 25 26 26 26 26 27 28 29 30 30 31 32 33 34 36 37 38 40 42 43 44 45 46 45 45 45
18 19 19 19 19 20 20 21 22 22 23 23 24 25 26 26 27 28 29 29 30 31 32 33 34 35 36 37 39 40 42 44 45 45 46 46 46 47
10 12 13 13 14 16 17 18 19 20 21 22 23 24 25 26 27 28 29 30 31 32 33 33 34 35 36 37 38 39 40 42 44 45 44 45 46 47
2 5 7 8 9 11 13 15 17 18 19 20 22 23 25 26 28 29 31 32 33 34 34 35 36 37 37 38 39 39 41 42 42 43 44 44 45 46
3 2 2 4 6 8 10 12 14 16 18 20 22 23 25 27 29 30 32 33 34 35 36 37 38 38 39 40 40 40 41 42 42 42 42 43 43 44
6 3 2 2 4 6 8 10 12 14 17 19 21 23 25 26 28 29 31 32 33 35 36 37 38 38 39 40 40 41 42 42 43 43 43 42 42 42
10 8 7 6 5 5 6 8 10 12 14 16 19 21 22 24 25 27 29 30 32 33 35 36 37 38 38 39 40 40 41 42 42 42 42 42 42 42
Wind_Direction
246 245 243 243 240 235 230 227 227 228 229 228 228 230 231 231 231 229 229 231 232 233 234 235 236 238 240 243 245 248 249 250 250 251 252 252 253 253
247 247 248 245 242 242 236 230 227 228 229 230 230 231 233 234 235 235 234 234 234 235 235 236 238 240 242 245 246 248 249 250 251 252 253 253 253 255
248 247 248 247 244 245 242 235 230 229 229 230 231 231 232 233 235 237 237 237 238 239 239 240 241 243 244 245 246 247 247 248 250 252 253 255 256 257
251 249 247 248 247 247 246 240 232 229 229 230 231 232 234 235 236 239 239 239 239 240 240 241 242 244 245 246 247 248 248 249 251 253 255 257 258 259
253 252 248 249 249 247 247 243 237 233 231 230 231 232 234 237 239 240 242 243 242 242 242 242 243 244 246 247 248 249 250 251 253 255 256 259 260 262
254 255 253 251 252 251 247 244 239 236 235 235 234 232 233 236 238 241 243 244 246 245 244 244 244 245 246 248 249 250 251 253 255 257 258 260 261 263
256 256 256 255 254 255 249 244 243 239 240 239 237 235 235 236 238 241 244 246 248 248 246 246 246 247 248 249 251 252 253 254 256 257 259 260 261 263
257 256 256 255 254 253 251 248 246 245 245 243 240 238 237 236 238 241 243 244 246 248 249 249 249 250 251 252 253 254 255 256 257 258 259 260 261 262
256 255 254 253 252 251 249 249 247 244 245 243 242 241 239 238 238 240 242 243 244 248 250 252 252 252 254 256 256 257 257 258 258 258 258 259 260 260
256 255 254 253 252 251 249 248 248 246 245 246 245 243 242 240 239 239 241 242 244 247 249 251 253 254 256 257 258 259 259 259 258 257 257 257 258 259
255 254 253 253 252 251 249 247 246 246 246 245 244 244 243 243 242 242 242 243 244 246 248 250 253 255 256 258 258 258 258 258 258 257 257 256 257 258
254 253 253 253 252 252 251 251 248 247 247 248 247 246 246 246 246 246 245 246 246 247 248 249 251 254 256 257 258 257 257 256 256 256 256 256 257 258
255 254 253 254 252 252 251 251 251 249 248 249 249 248 248 248 248 248 248 249 249 249 250 251 252 254 255 257 259 258 258 258 257 257 257 257 257 258
256 254 254 252 251 251 251 251 250 250 249 248 249 249 249 250 250 250 251 252 253 253 253 253 254 254 254 255 257 259 260 260 259 259 258 258 259 259
255 253 253 252 251 250 250 250 249 250 249 249 250 251 252 252 253 254 255 256 257 257 256 255 255 255 255 255 256 257 259 260 259 259 259 259 260 260
254 253 253 252 251 250 250 249 249 249 250 250 251 252 253 255 256 257 257 258 259 260 260 259 258 257 255 255 256 256 257 259 260 260 259 259 259 259
253 252 250 249 249 251 248 248 248 249 249 251 252 253 255 257 259 259 259 260 262 263 262 262 262 260 258 256 255 255 254 256 258 259 260 259 259 259
248 245 243 244 246 247 246 247 247 248 250 252 254 255 257 258 260 261 262 263 264 264 264 264 263 262 261 259 258 257 256 256 257 258 259 258 258 259
240 234 231 235 241 243 245 247 249 251 253 256 258 260 261 262 263 264 265 266 266 267 266 266 266 265 264 264 264 263 262 259 258 259 258 257 257 256
192 206 218 230 242 248 250 251 253 256 258 261 263 265 266 267 267 268 269 269 269 269 269 269 268 267 267 267 267 267 266 265 264 263 262 261 259 257
95 142 207 238 251 258 259 261 262 263 264 267 270 271 272 272 272 273 273 273 272 272 272 271 271 270 269 268 268 268 268 268 268 267 265 264 262 261
58 49 18 325 293 285 280 278 277 276 277 277 278 279 279 278 278 278 277 276 275 274 273 273 272 272 271 269 269 268 268 269 268 268 266 264 263 262
47 42 34 20 358 337 322 312 305 300 297 294 291 289 287 286 285 284 282 281 279 278 276 275 273 272 272 271 270 270 269 268 268 267 266 264 263 262
Height
5799 5800 5802 5804 5805 5808 5811 5814 5818 5820 5823 5825 5827 5828 5830 5832 5833 5835 5836 5838 5839 5841 5843 5844 5846 5847 5849 5850 5852 5853 5855 5856 5857 5859 5860 5861 5863 5864
5793 5795 5796 5797 5800 5801 5804 5807 5811 5814 5817 5820 5822 5824 5826 5828 5829 5831 5832 5834 5835 5837 5838 5840 5842 5843 5845 5846 5847 5849 5850 5851 5852 5854 5855 5856 5857 5858
5788 5789 5791 5791 5793 5795 5797 5800 5803 5807 5811 5814 5816 5819 5821 5823 5825 5826 5828 5829 5831 5832 5834 5835 5837 5839 5840 5841 5842 5844 5845 5846 5847 5848 5849 5850 5851 5852
5783 5784 5785 5786 5787 5788 5790 5793 5796 5799 5803 5807 5810 5813 5815 5817 5819 5821 5823 5824 5826 5827 5829 5830 5832 5833 5835 5836 5837 5838 5839 5841 5842 5843 5844 5845 5846 5846
5778 5778 5779 5780 5781 5782 5783 5785 5788 5791 5795 5799 5803 5806 5808 5811 5813 5815 5817 5818 5820 5822 5823 5825 5826 5828 5829 5831 5832 5833 5834 5835 5836 5837 5838 5838 5839 5840
5772 5773 5774 5774 5775 5776 5777 5779 5781 5783 5787 5791 5794 5798 5801 5803 5806 5808 5810 5812 5814 5816 5817 5818 5820 5821 5823 5825 5826 5827 5828 5829 5830 5830 5831 5832 5833 5833
5766 5767 5768 5769 5770 5771 5771 5773 5775 5777 5779 5782 5785 5789 5792 5796 5799 5801 5803 5805 5808 5809 5810 5812 5814 5815 5816 5818 5819 5820 5821 5822 5823 5824 5825 5825 5826 5826
5759 5760 5762 5763 5764 5765 5766 5767 5769 5770 5772 5774 5777 5780 5784 5787 5790 5793 5795 5798 5800 5801 5802 5805 5807 5808 5809 5810 5812 5813 5814 5815 5816 5816 5817 5818 5818 5819
5753 5754 5755 5757 5758 5759 5760 5761 5763 5764 5766 5768 5770 5772 5775 5778 5782 5785 5787 5790 5792 5793 5796 5797 5798 5799 5800 5802 5804 5805 5806 5807 5807 5808 5809 5810 5810 5811
5746 5748 5749 5750 5752 5753 5755 5756 5757 5758 5760 5761 5763 5765 5767 5770 5773 5776 5779 5782 5784 5786 5787 5789 5789 5791 5792 5794 5795 5796 5797 5798 5799 5799 5800 5801 5802 5802
5740 5741 5742 5743 5745 5746 5748 5749 5751 5752 5754 5755 5757 5758 5760 5762 5765 5767 5770 5773 5775 5777 5778 5780 5781 5782 5783 5785 5786 5787 5788 5789 5789 5790 5791 5792 5793 5794
5733 5734 5735 5736 5738 5739 5741 5743 5744 5746 5748 5749 5750 5752 5754 5755 5757 5759 5761 5763 5766 5768 5769 5771 5772 5773 5775 5775 5776 5778 5778 5779 5780 5781 5782 5783 5784 5784
5726 5727 5728 5729 5731 5733 5734 5736 5738 5739 5741 5743 5744 5745 5747 5748 5750 5751 5753 5755 5756 5758 5759 5761 5763 5764 5765 5766 5766 5767 5768 5769 5770 5771 5772 5773 5774 5775
5719 5720 5721 5723 5724 5726 5728 5729 5731 5733 5734 5736 5737 5739 5740 5742 5743 5744 5745 5746 5747 5749 5750 5751 5752 5753 5755 5756 5756 5756 5757 5759 5760 5760 5761 5763 5764 5765
5711 5712 5714 5715 5717 5719 5721 5723 5724 5726 5728 5729 5731 5732 5733 5734 5735 5736 5737 5738 5738 5739 5740 5741 5742 5742 5743 5745 5745 5746 5746 5747 5748 5749 5750 5751 5753 5754
5703 5705 5706 5709 5711 5713 5714 5716 5718 5719 5721 5722 5724 5725 5726 5727 5728 5729 5729 5730 5730 5730 5730 5730 5731 5732 5732 5733 5734 5734 5735 5735 5736 5737 5738 5739 5741 5742
5695 5697 5700 5702 5704 5706 5708 5710 5711 5713 5714 5716 5717 5718 5719 5720 5720 5721 5721 5721 5721 5721 5721 5721 5721 5721 5721 5722 5722 5723 5723 5724 5724 5724 5726 5727 5728 5729
5689 5691 5694 5696 5699 5701 5702 5704 5705 5707 5708 5709 5710 5711 5712 5713 5713 5713 5713 5713 5713 5712 5712 5712 5712 5712 5712 5711 5712 5711 5711 5712 5712 5712 5713 5714 5715 5716
5685 5687 5690 5692 5694 5696 5697 5699 5700 5701 5702 5704 5704 5705 5705 5705 5705 5705 5705 5704 5704 5703 5702 5702 5701 5701 5701 5701 5700 5700 5700 5699 5699 5700 5700 5701 5702 5703
5685 5687 5688 5690 5692 5693 5694 5695 5696 5697 5698 5698 5698 5699 5698 5698 5698 5697 5696 5695 5695 5694 5693 5692 5691 5690 5690 5689 5689 5688 5687 5687 5686 5687 5687 5688 5689 5689
5688 5688 5689 5690 5691 5691 5692 5692 5692 5693 5693 5693 5693 5692 5691 5691 5689 5688 5687 5686 5685 5683 5682 5681 5680 5679 5678 5677 5677 5676 5674 5674 5674 5674 5674 5675 5675 5676
5691 5690 5691 5691 5691 5690 5690 5690 5690 5689 5689 5688 5687 5686 5684 5683 5681 5680 5678 5676 5674 5672 5671 5669 5668 5666 5665 5665 5664 5663 5662 5661 5660 5660 5661 5661 5662 5663
5693 5693 5692 5691 5691 5690 5689 5688 5687 5686 5685 5683 5681 5679 5677 5675 5673 5671 5668 5666 5663 5661 5659 5657 5656 5654 5653 5651 5650 5649 5648 5647 5647 5647 5647 5647 5648 5649